CAPE
1 0 1 2 5 3 4 2 1 2 2 3 2 2 1 0 0 0 0 0 0 0 0 0 0 0 0 0 0 0 0 0 0 0 0 2 13 21 11 6 1 11 14 9 10 15 8
2 1 3 3 4 3 4 2 3 1 1 4 3 1 0 0 0 0 0 0 0 0 0 0 0 0 0 0 0 0 0 0 0 0 5 7 17 19 21 3 0 1 1 5 3 15 7
3 1 5 3 2 4 3 4 3 1 4 3 3 3 0 0 0 0 0 0 0 0 0 0 0 0 0 0 0 0 0 0 0 0 0 1 3 28 7 6 6 0 1 8 5 12 10
3 2 2 0 1 3 3 4 2 3 2 2 3 2 0 0 0 0 0 0 0 0 0 0 0 0 0 0 0 0 0 0 0 0 0 0 0 7 21 13 2 13 11 13 15 1 17
1 2 2 1 2 3 3 2 2 1 1 1 2 0 0 0 0 0 0 0 0 0 0 0 0 0 0 0 0 0 0 0 0 0 0 0 2 5 1 7 1 1 5 5 2 10 12
6 3 3 1 4 3 3 2 1 0 0 0 1 0 0 0 0 0 0 0 0 0 0 0 0 0 0 0 0 0 0 0 0 0 0 1 4 3 5 12 13 11 5 1 5 8 7
5 9 3 3 1 2 4 3 1 0 0 0 0 0 0 0 0 0 0 0 0 0 0 0 0 0 0 0 0 0 0 0 0 0 0 0 1 16 0 0 4 5 2 5 31 23 0
5 1 4 3 3 1 3 3 1 0 0 0 0 0 0 0 0 0 0 0 0 0 0 0 0 0 0 0 0 0 0 0 0 0 0 0 17 0 0 0 0 2 7 23 28 43 38
2 3 2 1 2 2 0 0 0 0 0 0 0 0 0 0 0 0 0 0 0 0 0 0 0 0 0 0 0 0 0 0 0 0 0 0 0 0 0 0 0 0 0 2 0 0 31
1 2 2 2 2 1 0 0 0 0 0 0 0 0 0 0 0 0 0 0 0 0 0 0 0 0 0 0 0 0 0 0 0 0 0 0 0 0 0 0 0 0 0 0 0 0 11
0 0 0 0 2 0 0 0 0 0 0 0 0 0 0 0 0 0 0 0 0 0 0 0 0 0 0 0 0 0 0 0 0 0 0 0 0 0 0 0 0 0 0 0 0 11 8
0 0 0 0 0 0 0 0 0 0 0 0 0 0 0 0 0 0 0 0 0 0 0 0 0 0 0 0 0 0 0 0 0 0 0 0 0 0 0 0 0 0 0 26 17 21 2
0 0 0 0 0 0 0 0 0 0 0 0 0 0 0 0 0 0 0 0 0 0 0 0 0 0 0 0 0 0 0 0 0 0 0 0 0 0 0 0 0 0 0 27 3 14 11
0 0 0 0 0 0 0 0 0 0 0 0 0 0 0 0 0 0 0 0 0 0 0 0 0 0 0 0 0 0 0 0 0 0 0 0 0 0 0 0 0 0 0 0 0 0 0
5 3 0 0 0 0 0 0 0 0 0 0 0 0 0 0 0 0 0 0 0 0 0 0 0 0 0 0 0 0 0 0 0 0 0 0 0 0 0 0 0 0 0 0 0 0 1
0 7 10 4 1 0 0 0 0 0 0 0 0 0 0 0 0 0 0 0 0 0 0 0 0 0 0 0 0 0 0 0 0 0 0 0 0 0 0 0 0 0 0 0 0 0 0
1 1 0 6 6 2 0 0 0 0 0 0 0 0 0 0 0 0 0 0 0 0 0 0 0 0 0 0 0 0 0 0 0 0 0 0 0 0 0 0 0 0 0 0 0 0 0
2 3 2 0 0 4 4 1 0 0 0 0 0 0 0 0 0 0 0 0 0 0 0 0 0 0 0 0 0 0 0 0 0 0 0 0 0 0 0 0 0 0 0 0 0 0 0
1 1 2 1 0 0 0 4 2 0 0 0 0 0 0 0 0 0 0 0 0 0 0 0 0 0 0 0 0 0 0 0 0 0 0 0 0 0 0 0 0 0 0 0 0 0 0
3 2 1 3 2 1 0 0 1 0 0 0 0 0 0 0 0 0 0 0 0 0 0 0 0 0 0 0 0 0 0 0 0 0 0 0 0 0 0 0 0 0 0 0 0 0 0
2 1 1 0 1 2 2 0 0 1 0 0 0 0 0 0 0 0 0 0 0 0 0 0 0 0 0 0 0 0 0 0 0 0 0 0 0 0 0 0 0 0 0 0 0 0 0
4 4 3 4 5 1 3 1 1 2 1 5 0 0 0 0 0 0 0 0 0 0 0 0 0 0 0 0 0 0 0 0 0 0 0 0 0 0 0 0 0 0 0 0 0 0 0
2 4 3 5 6 11 5 0 1 0 4 1 0 1 0 0 0 0 0 0 0 0 0 0 0 0 0 0 0 0 0 0 0 0 0 0 0 0 0 0 0 0 0 0 0 0 0
11 31 18 19 19 20 22 9 1 1 1 4 0 0 0 0 0 0 0 0 0 0 0 0 0 0 0 0 0 0 0 0 0 0 0 0 0 0 0 0 0 0 0 0 0 0 0
5 8 9 12 10 5 5 15 14 3 5 5 5 0 0 0 0 0 0 0 0 0 0 0 0 0 0 0 0 0 0 0 0 0 0 0 0 0 0 0 0 0 0 0 0 0 0
7 4 7 3 4 4 13 18 15 14 13 3 1 4 1 4 0 0 0 0 0 0 0 0 0 0 0 0 0 0 0 0 0 0 0 0 0 0 0 0 0 0 0 0 0 0 0
5 6 11 11 8 4 2 9 13 15 10 2 0 0 6 2 0 0 0 0 0 0 0 0 0 0 0 0 0 0 0 0 0 0 0 0 0 0 0 0 0 0 0 0 0 0 0
5 4 15 10 5 3 3 2 2 11 8 2 2 4 38 20 0 0 0 0 0 0 0 0 0 0 0 0 0 0 0 0 0 0 0 0 0 0 0 0 0 0 0 0 0 0 0
10 4 5 7 6 4 11 5 6 8 8 1 0 13 61 61 7 0 0 0 0 0 0 0 0 0 0 0 0 0 0 0 0 0 0 0 0 0 0 0 0 0 0 0 0 0 0
CIN
0 -1 0 0 0 0 0 0 0 0 0 0 0 0 0 0 0 0 0 0 0 0 0 0 0 0 0 0 0 0 0 0 0 0 0 -1 -1 -1 -7 -6 -4 -9 -22 -1 -1 -1 -1
0 0 0 0 0 0 0 0 0 0 -1 0 0 0 0 0 0 0 0 0 0 0 0 0 0 0 0 0 0 0 0 0 0 0 -1 -1 -1 -1 0 -21 0 -1 -1 -2 -5 -1 -1
-1 0 0 0 0 0 0 0 0 0 0 0 0 0 0 0 0 0 0 0 0 0 0 0 0 0 0 0 0 0 0 0 0 0 0 -1 -6 -1 -1 -1 -1 0 -1 -1 -2 -2 -1
0 -2 -1 0 0 0 0 0 0 0 0 0 0 0 0 0 0 0 0 0 0 0 0 0 0 0 0 0 0 0 0 0 0 0 0 0 0 -3 -1 -2 -2 -1 -7 -36 -16 -1 -1
-1 0 -1 -1 0 0 0 0 0 0 0 0 0 0 0 0 0 0 0 0 0 0 0 0 0 0 0 0 0 0 0 0 0 0 0 0 -1 -1 -8 -2 -1 -1 -1 -2 -5 -13 -2
-1 0 0 -1 0 0 0 0 0 0 0 0 0 0 0 0 0 0 0 0 0 0 0 0 0 0 0 0 0 0 0 0 0 0 0 -1 -1 -11 -9 -8 -1 -2 -2 -1 -3 -5 -3
0 0 0 0 -1 0 0 0 0 0 0 0 0 0 0 0 0 0 0 0 0 0 0 0 0 0 0 0 0 0 0 0 0 0 0 0 -9 -2 0 -6 -21 -5 -2 -2 -5 -6 -1
-1 -1 -1 -1 0 0 0 0 0 0 0 0 0 0 0 0 0 0 0 0 0 0 0 0 0 0 0 0 0 0 0 0 0 0 0 0 -2 0 0 0 0 -1 -5 -3 -2 -5 -7
-1 0 0 -1 0 0 0 0 0 0 0 0 0 0 0 0 0 0 0 0 0 0 0 0 0 0 0 0 0 0 0 0 0 0 0 0 0 0 0 0 0 0 0 -1 0 0 -28
0 -1 0 0 0 0 0 0 0 0 0 0 0 0 0 0 0 0 0 0 0 0 0 0 0 0 0 0 0 0 0 0 0 0 0 0 0 0 0 0 0 0 0 0 0 0 -5
0 0 0 0 0 0 0 0 0 0 0 0 0 0 0 0 0 0 0 0 0 0 0 0 0 0 0 0 0 0 0 0 0 0 0 0 0 0 0 0 0 0 0 0 0 -15 -7
0 0 0 0 0 0 0 0 0 0 0 0 0 0 0 0 0 0 0 0 0 0 0 0 0 0 0 0 0 0 0 0 0 0 0 0 0 0 0 0 0 0 0 -29 -30 -3 -16
0 0 0 0 0 0 0 0 0 0 0 0 0 0 0 0 0 0 0 0 0 0 0 0 0 0 0 0 0 0 0 0 0 0 0 0 0 0 0 0 0 0 0 -20 -7 -8 -2
0 0 0 0 0 0 0 0 0 0 0 0 0 0 0 0 0 0 0 0 0 0 0 0 0 0 0 0 0 0 0 0 0 0 0 0 0 0 0 0 0 0 0 0 0 0 -1
-2 -5 -1 0 0 0 0 0 0 0 0 0 0 0 0 0 0 0 0 0 0 0 0 0 0 0 0 0 0 0 0 0 0 0 0 0 0 0 0 0 0 0 0 0 0 0 -4
0 -1 0 -5 -7 0 0 0 0 0 0 0 0 0 0 0 0 0 0 0 0 0 0 0 0 0 0 0 0 0 0 0 0 0 0 0 0 0 0 0 0 0 0 0 0 0 0
0 0 0 -2 -1 -6 0 0 0 0 0 0 0 0 0 0 0 0 0 0 0 0 0 0 0 0 0 0 0 0 0 0 0 0 0 0 0 0 0 0 0 0 0 0 0 0 0
0 0 0 0 0 -3 -2 -5 0 0 0 0 0 0 0 0 0 0 0 0 0 0 0 0 0 0 0 0 0 0 0 0 0 0 0 0 0 0 0 0 0 0 0 0 0 0 0
-1 0 0 0 0 0 0 0 -6 0 0 0 0 0 0 0 0 0 0 0 0 0 0 0 0 0 0 0 0 0 0 0 0 0 0 0 0 0 0 0 0 0 0 0 0 0 0
-1 0 0 0 0 0 0 0 -4 0 0 0 0 0 0 0 0 0 0 0 0 0 0 0 0 0 0 0 0 0 0 0 0 0 0 0 0 0 0 0 0 0 0 0 0 0 0
-1 -1 -1 -1 0 0 0 0 0 0 0 0 0 0 0 0 0 0 0 0 0 0 0 0 0 0 0 0 0 0 0 0 0 0 0 0 0 0 0 0 0 0 0 0 0 0 0
-1 -1 -1 0 0 0 0 0 0 0 -1 0 0 0 0 0 0 0 0 0 0 0 0 0 0 0 0 0 0 0 0 0 0 0 0 0 0 0 0 0 0 0 0 0 0 0 0
-1 -1 0 -1 -1 -1 -1 -1 0 0 0 0 -2 -1 0 0 0 0 0 0 0 0 0 0 0 0 0 0 0 0 0 0 0 0 0 0 0 0 0 0 0 0 0 0 0 0 0
0 0 -1 0 0 0 0 -1 0 0 0 0 0 -2 0 0 0 0 0 0 0 0 0 0 0 0 0 0 0 0 0 0 0 0 0 0 0 0 0 0 0 0 0 0 0 0 0
-1 -1 0 0 -1 -1 -4 0 -1 0 0 0 0 0 -2 0 0 0 0 0 0 0 0 0 0 0 0 0 0 0 0 0 0 0 0 0 0 0 0 0 0 0 0 0 0 0 0
0 -1 -1 0 0 0 -1 0 0 0 0 0 0 0 0 0 0 0 0 0 0 0 0 0 0 0 0 0 0 0 0 0 0 0 0 0 0 0 0 0 0 0 0 0 0 0 0
0 0 0 0 0 0 -1 -1 0 0 0 0 -1 -6 -21 -12 0 0 0 0 0 0 0 0 0 0 0 0 0 0 0 0 0 0 0 0 0 0 0 0 0 0 0 0 0 0 0
0 -1 0 -1 -1 0 0 -1 -1 -1 0 0 0 -1 -1 -2 0 0 0 0 0 0 0 0 0 0 0 0 0 0 0 0 0 0 0 0 0 0 0 0 0 0 0 0 0 0 0
0 -1 -1 0 0 0 0 0 0 0 0 0 0 0 -1 -1 -4 0 0 0 0 0 0 0 0 0 0 0 0 0 0 0 0 0 0 0 0 0 0 0 0 0 0 0 0 0 0
Wind_Speed
14 15 17 18 19 20 20 21 22 20 19 19 20 20 5 9 11 10 11 11 14 19 21 22 20 23 22 25 24 15 18 19 19 19 21 20 13 15 9 17 23 20 22 28 31 32 35
15 16 18 19 20 21 21 22 23 24 23 21 21 22 25 18 13 10 9 9 12 15 17 18 18 20 23 29 18 14 16 17 20 21 22 21 19 17 12 9 11 19 25 30 31 32 33
16 17 19 20 21 22 22 23 23 25 25 25 24 23 24 24 19 11 9 9 10 13 15 15 17 18 20 24 16 14 14 16 16 21 21 21 19 14 16 10 7 9 23 28 24 29 30
17 18 19 21 22 22 23 24 25 26 26 27 27 24 24 26 18 12 10 10 9 11 14 15 15 16 21 18 14 13 13 13 13 14 15 15 17 12 10 9 6 5 4 20 17 21 26
18 19 20 21 22 23 24 25 25 25 27 27 27 25 26 25 24 16 13 11 10 11 14 15 17 17 22 17 18 15 11 11 11 11 11 12 15 19 16 14 8 11 4 6 13 20 19
19 20 21 22 23 23 24 25 25 25 26 27 27 26 26 26 26 22 14 13 14 12 14 15 15 18 19 19 16 15 12 11 11 10 11 13 13 13 13 13 16 11 7 7 8 7 2
19 20 21 22 23 24 24 25 26 26 27 27 27 26 27 26 25 22 19 15 16 15 13 17 19 18 17 16 16 16 15 12 12 12 16 15 14 18 12 10 7 9 4 12 23 18 8
20 21 22 23 23 24 24 25 25 26 26 27 27 26 27 26 23 19 17 18 18 16 16 13 14 14 15 18 18 16 15 18 17 17 15 14 16 16 13 14 11 6 2 4 6 8 9
21 21 22 23 24 24 25 25 26 26 26 27 26 24 27 26 20 19 20 19 16 15 14 16 15 16 17 17 17 17 16 17 17 17 17 16 11 12 13 13 12 10 8 3 11 13 6
22 22 23 24 24 25 26 26 27 27 27 27 26 24 26 26 20 20 20 18 16 15 17 19 19 17 17 16 16 15 16 17 17 17 18 17 15 13 13 14 13 9 12 5 5 7 25
23 23 24 25 25 26 27 27 28 28 28 28 28 25 25 23 20 20 19 16 15 16 23 20 19 16 15 17 14 17 15 16 14 12 16 17 16 16 16 15 13 11 9 5 4 6 8
24 24 25 25 26 27 28 28 28 29 30 30 30 27 26 19 18 19 16 15 15 20 22 21 19 20 20 16 17 14 15 14 12 13 12 7 10 15 15 10 9 6 8 3 7 9 13
26 27 26 27 27 28 28 29 29 30 30 31 31 28 24 20 19 18 16 17 20 21 21 22 22 22 22 20 19 18 17 15 20 20 19 12 13 15 15 15 14 12 15 17 16 14 14
30 29 29 28 29 29 30 30 31 31 32 32 33 26 22 20 18 17 18 18 18 19 20 22 22 21 22 23 20 20 19 19 18 16 15 20 18 15 14 16 14 14 17 20 17 11 8
32 32 31 31 30 30 31 31 31 32 33 33 32 22 20 20 18 17 18 20 19 20 20 22 22 22 23 23 22 23 20 19 19 19 20 18 16 14 12 12 14 16 16 13 13 12 13
30 32 34 32 31 31 31 31 32 32 33 34 29 25 21 18 17 17 18 18 20 20 20 21 23 22 24 26 24 24 22 20 20 19 17 17 14 15 13 12 13 13 12 16 15 17 17
33 34 34 34 31 32 32 32 33 33 33 33 26 27 21 18 17 19 22 21 19 18 17 19 22 24 22 25 23 23 21 21 19 20 19 17 15 14 12 14 13 13 13 13 13 14 15
33 33 34 34 34 34 32 32 31 31 34 27 26 27 19 17 24 22 23 22 20 19 17 19 20 19 22 23 23 22 21 22 20 21 22 20 18 16 8 14 12 10 11 11 11 12 10
33 34 34 35 35 35 35 32 30 29 27 27 26 27 21 21 27 26 26 25 23 20 20 19 20 18 20 22 24 21 22 22 20 21 22 21 20 22 18 15 15 12 11 7 7 8 9
33 33 34 35 35 35 36 36 30 26 23 24 26 32 22 21 27 28 27 27 26 21 21 19 21 20 21 23 19 24 24 23 20 20 21 20 19 16 14 13 19 4 1 4 5 6 7
34 35 35 35 35 36 35 35 35 25 21 22 25 30 28 30 25 24 25 27 24 24 20 17 24 20 21 26 25 24 24 25 22 22 22 21 22 22 20 21 8 14 9 4 6 8 6
35 35 36 36 36 36 35 34 33 32 19 26 31 31 29 35 30 28 26 29 27 26 23 27 24 23 17 23 23 29 27 27 29 24 24 22 26 26 31 27 26 26 14 7 1 9 13
36 36 36 37 37 36 35 36 35 33 25 29 28 31 34 37 33 33 31 32 30 23 25 25 23 23 25 23 26 27 25 26 28 28 26 26 27 29 28 30 38 32 22 12 14 14 12
36 35 36 36 36 38 37 37 37 36 35 37 31 30 35 46 40 38 38 35 32 27 30 25 20 23 22 19 22 24 25 27 27 26 23 25 26 26 31 32 26 21 19 19 18 20 17
37 36 37 38 39 40 40 40 39 39 42 42 40 34 36 49 45 46 40 38 35 32 30 29 24 22 16 21 30 32 29 29 25 25 24 22 23 27 27 27 30 23 19 17 18 20 21
39 39 38 39 40 42 42 41 41 42 45 43 43 38 37 46 49 44 44 39 40 37 34 31 25 20 19 24 27 34 34 30 28 26 24 23 22 23 24 27 26 22 20 18 17 20 19
39 39 41 42 42 44 44 43 44 46 48 46 44 37 38 48 51 39 40 42 36 35 35 28 25 25 21 26 28 31 34 28 32 29 27 26 26 23 24 27 28 24 20 18 20 20 18
38 40 41 42 43 45 46 46 46 48 47 48 46 35 39 45 50 40 42 38 33 33 35 27 26 27 25 27 28 28 30 27 30 27 27 26 25 27 23 27 32 24 19 23 20 18 19
39 41 42 43 44 46 47 48 48 48 48 49 46 32 34 41 42 37 42 38 39 36 33 27 31 25 23 26 27 27 28 25 25 34 21 30 24 28 24 27 22 23 22 18 20 22 21
Wind_Direction
326 328 329 331 334 336 334 334 332 320 310 301 297 291 219 71 54 55 54 55 49 40 39 39 42 40 46 40 38 57 42 37 42 39 27 25 36 25 35 2 319 313 308 291 282 276 269
322 328 330 333 333 334 332 332 334 332 324 312 304 302 321 21 42 55 57 59 52 44 43 42 44 46 44 35 52 66 57 53 44 37 30 25 29 35 46 48 14 332 306 292 285 276 273
323 324 327 331 333 333 332 331 327 330 328 323 313 303 312 351 19 50 61 60 56 50 46 48 48 52 47 42 63 71 68 63 55 42 39 39 39 55 47 69 74 24 322 308 308 281 272
326 325 327 330 332 334 333 330 331 329 327 325 323 313 306 325 23 47 54 62 65 56 49 53 55 55 43 60 70 71 74 66 65 65 61 63 57 63 71 63 92 133 75 333 335 315 279
324 325 327 331 331 331 330 330 325 324 326 325 322 322 319 311 358 29 44 61 67 60 51 54 52 53 43 62 56 63 80 70 68 78 76 76 56 45 46 49 60 58 164 193 247 325 307
320 324 328 333 331 329 327 327 324 323 322 322 321 323 324 322 347 9 42 52 46 55 52 57 54 50 52 45 53 62 78 80 77 72 73 73 67 60 62 61 43 53 217 200 210 80 91
322 323 327 328 329 327 325 324 325 323 322 320 320 321 325 325 353 8 25 41 35 41 56 40 37 44 45 49 61 66 67 68 77 76 60 68 65 53 55 62 71 70 116 249 294 9 39
322 322 326 326 326 325 324 321 321 322 320 318 317 320 326 330 360 24 38 25 28 41 31 51 48 47 52 52 52 63 69 57 55 51 59 64 60 58 58 60 65 90 134 226 95 88 90
318 321 322 323 324 323 320 321 318 318 318 318 315 312 336 334 19 32 20 24 45 48 38 41 46 44 47 52 52 56 61 55 55 55 51 55 59 62 61 59 60 71 75 195 261 274 148
315 316 319 320 322 321 318 320 318 318 317 318 316 312 342 327 25 21 21 34 46 51 29 29 34 45 45 50 53 59 64 58 59 54 50 63 67 66 62 67 65 71 66 89 215 219 3
311 314 316 317 317 319 319 317 321 319 318 319 318 317 333 12 21 20 27 47 56 51 8 25 32 51 48 42 43 56 60 59 55 51 56 58 53 54 60 66 78 72 65 77 140 152 114
308 312 315 316 317 318 316 317 318 320 321 321 319 321 326 19 27 27 45 56 50 21 7 19 27 26 28 45 42 47 51 59 54 52 66 56 66 70 66 68 85 63 55 75 113 117 98
305 306 309 312 313 314 316 316 317 318 319 320 319 322 342 359 6 19 33 31 11 10 15 15 15 18 20 26 30 36 38 47 44 41 44 47 72 70 71 58 76 58 51 63 80 95 97
298 304 304 309 310 311 312 313 314 314 316 318 315 330 345 352 358 8 14 6 4 9 10 12 14 14 18 19 27 27 30 33 46 50 41 42 48 62 61 58 55 58 59 63 71 85 119
296 300 303 301 308 311 310 311 312 312 312 314 316 337 338 343 350 356 356 346 349 356 2 3 8 12 13 16 16 17 24 25 31 40 37 40 46 56 61 61 59 60 64 73 81 111 112
310 304 298 302 304 305 309 310 308 313 313 314 320 323 328 339 341 341 339 340 338 349 354 357 359 6 4 4 10 12 16 22 21 28 39 38 36 55 59 59 75 73 71 74 86 85 100
305 304 303 304 302 302 304 305 305 310 311 314 316 311 321 330 333 325 318 325 334 341 348 350 347 348 355 358 4 8 13 13 18 15 19 24 35 41 49 60 63 70 75 81 87 101 102
308 306 306 303 305 301 301 303 307 311 311 312 309 304 320 325 309 311 312 318 327 329 337 336 340 346 347 352 356 3 7 6 10 7 5 5 11 17 37 45 70 80 78 84 93 101 120
311 310 307 306 304 303 301 298 303 306 314 311 302 301 308 304 298 301 303 306 312 317 321 328 331 336 343 344 345 351 355 1 7 3 1 1 356 357 15 31 38 48 61 85 113 128 143
314 313 311 309 308 305 303 301 296 301 306 306 303 295 303 296 295 296 298 299 301 309 312 316 321 327 329 332 339 339 344 351 1 358 356 353 349 345 347 349 352 348 357 78 129 125 158
314 312 310 310 308 307 307 303 302 294 296 299 294 291 295 291 293 290 293 298 299 302 304 309 313 310 318 319 324 328 334 338 347 350 350 348 339 335 328 323 290 249 240 207 191 187 153
314 313 312 310 309 308 306 304 302 303 286 285 285 289 293 286 290 285 282 286 287 293 297 301 301 309 307 313 319 320 324 328 330 341 341 342 333 331 324 323 321 323 332 330 207 191 208
314 313 313 311 311 309 307 305 301 295 285 282 282 283 287 283 282 279 276 281 286 287 292 292 296 299 301 304 311 316 321 321 321 327 332 333 330 327 325 323 309 309 323 334 336 340 350
317 318 317 316 313 310 306 303 301 296 290 282 280 279 277 275 276 275 280 281 278 278 286 295 293 295 306 320 320 318 318 316 318 318 323 328 329 327 320 322 318 322 322 318 317 318 318
318 316 317 317 315 310 306 303 299 295 291 283 278 270 274 273 274 273 273 275 280 282 280 284 289 302 308 310 305 305 310 314 319 320 320 323 325 324 322 321 313 314 321 319 313 316 319
316 315 314 315 314 312 308 304 300 296 294 284 274 271 268 273 265 273 274 270 271 274 277 281 290 294 296 297 298 296 298 306 312 319 324 322 319 319 321 316 316 326 327 321 315 305 320
313 313 312 310 311 311 309 304 302 296 292 292 275 260 262 266 269 269 268 268 270 270 274 279 280 282 286 286 288 291 294 302 302 308 315 319 316 311 311 308 309 319 324 319 298 303 313
312 312 312 311 310 309 308 306 302 299 298 293 277 254 249 261 267 268 258 268 271 265 264 278 279 278 276 278 284 290 293 296 300 304 310 314 314 313 314 306 303 319 317 304 308 311 312
310 310 311 310 309 308 306 305 304 301 299 297 277 259 248 258 269 266 260 259 262 271 270 264 275 280 274 278 280 289 290 294 299 299 310 304 307 310 306 307 308 315 313 316 314 310 312